Tracking 29932 objects as of 4-Dec-2024
HD Live streaming from Space Station
objects crossing your sky now

STARLINK-30781

Track STARLINK-30781 now!
10-day predictions
STARLINK-30781 is classified as:


NORAD ID: 58123
Int'l Code: 2023-162F
Perigee: 565.1 km
Apogee: 567.3 km
Inclination: 43.0 °
Period: 95.8 minutes
Semi major axis: 6937 km
RCS: Unknown
Launch date: October 22, 2023
Source: United States (US)
Launch site: AIR FORCE EASTERN TEST RANGE (AFETR)
Your satellite tracking list
Your tracking list is empty




NASA's NSSDC Master Catalog

Two Line Element Set (TLE):
1 58123U 23162F   24338.08952245  .00000943  00000-0  84910-4 0  9990
2 58123  43.0082 121.2775 0001628 268.5135  91.5521 15.02535496 62865
Source of the keplerian elements: AFSPC